GFSNW_2pvu_pres_024.txt.gz
Presure
274 272 176 179 256 260 254 215 252 204 237 180 250 262 228 235 213 214 207 211 214 226 218 224 219 216 212 217 192 203 209 222 226 269 215 225 202 205 200 200 201 196 194 192
191 180 188 188 275 245 255 242 216 128 219 187 245 236 218 220 210 210 214 209 217 219 219 216 214 213 215 210 209 208 225 205 209 231 211 199 203 200 199 197 197 197 200 201
322 243 242 180 209 229 176 208 196 205 174 239 243 232 217 213 213 210 199 222 210 215 210 210 213 207 208 206 204 204 219 219 210 207 204 200 195 195 196 202 200 198 198 200
297 295 252 298 216 186 257 160 187 231 187 229 246 224 223 223 214 207 201 217 216 208 212 201 207 206 210 200 216 212 213 202 203 197 198 198 195 197 204 204 203 197 194 192
302 298 298 322 303 208 259 159 217 226 237 233 251 229 209 206 210 206 214 213 215 208 206 205 198 209 201 197 205 211 198 197 199 194 195 194 193 194 195 194 187 194 193 199
309 302 292 174 236 275 259 219 118 199 239 239 228 209 209 208 207 207 221 213 214 201 207 205 202 204 197 201 198 199 205 203 197 194 195 194 197 201 193 199 195 193 187 196
298 280 335 301 291 178 214 207 169 219 229 242 222 224 211 211 207 212 218 183 211 205 204 201 207 200 195 201 197 199 200 202 197 199 195 193 195 193 197 190 190 194 192 192
276 284 191 307 249 257 251 223 234 186 230 239 219 227 216 210 208 211 212 210 210 201 200 198 199 200 197 197 197 197 196 197 198 198 194 190 189 195 195 191 188 193 194 192
271 262 315 286 251 249 183 218 220 211 230 229 222 229 212 208 205 211 207 208 207 199 198 198 196 201 197 199 199 195 195 195 193 194 191 190 191 194 192 127 197 191 195 196
280 306 243 162 205 201 191 225 248 237 247 227 225 222 205 210 207 208 206 203 206 203 196 197 194 197 198 197 195 195 195 195 195 194 193 195 198 198 196 193 194 132 195 200
295 293 214 279 207 236 248 211 249 237 234 224 231 222 199 209 208 207 207 199 205 202 196 197 197 196 195 199 199 201 200 202 202 202 201 204 203 201 198 201 132 205 207 211
282 279 270 217 251 236 235 253 246 236 230 227 223 209 208 210 204 209 207 200 201 197 195 197 199 197 196 200 201 202 198 205 203 205 206 214 97 87 215 220 211 199 192 189
267 257 269 205 220 240 255 257 237 229 231 216 225 202 209 212 207 207 201 201 199 200 203 200 197 200 208 204 199 209 162 130 190 202 197 198 198 204 202 199 189 193 198 190
272 255 246 266 253 269 251 237 229 235 226 226 210 204 211 211 209 199 200 203 203 209 209 203 207 198 197 191 190 144 193 198 204 192 204 206 199 194 201 202 202 194 184 191
261 253 255 253 262 244 238 238 234 228 232 219 211 210 209 210 198 203 197 209 216 198 191 188 189 189 188 192 190 191 181 185 190 193 195 200 201 195 192 194 191 197 197 191
246 257 263 251 239 232 235 239 228 233 226 208 216 209 205 211 199 201 201 200 198 195 194 197 198 196 197 197 192 192 193 194 202 199 206 211 202 200 198 193 204 193 194 201
258 251 241 229 219 238 237 224 225 228 208 202 215 207 201 207 208 196 201 202 195 194 180 187 188 187 190 193 182 181 198 202 205 196 195 200 207 205 199 195 195 210 203 214
241 236 224 218 228 239 229 222 228 221 212 215 204 204 204 203 205 197 195 198 198 198 196 196 193 196 199 198 200 199 190 204 195 202 206 154 208 206 212 211 205 211 236 200
234 218 220 214 246 230 237 223 217 214 211 210 198 198 201 200 207 204 205 200 200 198 197 199 200 199 198 195 196 200 201 206 212 210 209 206 201 216 203 207 234 211 207 202
230 216 216 205 253 233 236 224 217 216 202 191 203 205 207 201 195 189 208 207 201 200 201 202 199 204 201 203 209 212 208 201 211 196 196 218 210 206 233 232 211 201 214 216
220 221 215 210 246 206 220 225 223 217 208 198 198 204 209 206 204 202 200 202 207 205 202 201 209 207 207 199 192 216 215 193 204 218 213 207 235 223 209 211 214 215 211 228
222 218 218 212 227 244 214 218 220 198 212 217 211 208 205 206 208 207 207 209 209 193 206 202 191 194 203 208 210 196 204 208 219 234 229 212 207 213 209 214 211 225 232 230
226 219 217 210 202 221 223 192 210 220 205 199 210 218 219 220 220 219 216 210 214 216 216 215 212 206 201 206 227 239 229 222 212 210 204 207 203 215 215 226 232 227 234 238
227 215 222 220 216 205 208 224 227 225 232 225 225 223 216 200 211 213 215 207 212 198 217 221 224 230 232 223 210 211 210 209 203 209 210 216 213 218 228 230 233 242 247 240
227 231 225 218 214 212 210 211 236 257 241 223 220 225 229 228 225 226 229 228 223 217 239 234 228 213 213 210 208 203 203 212 216 219 216 231 228 239 238 246 247 251 259 257
236 233 226 224 223 220 224 224 214 211 210 212 213 220 219 219 207 207 209 215 215 212 215 214 208 206 206 201 211 215 217 229 232 233 233 242 245 245 249 253 270 260 253 251
237 232 236 232 228 222 222 222 215 221 220 219 220 218 219 222 221 221 220 216 215 218 216 218 219 221 227 232 235 235 227 236 239 243 250 250 261 272 281 256 261 249 303 341

GFSNW_2pvu_pres_030.txt.gz
Presure
249 242 246 237 166 220 205 125 153 224 202 182 175 206 209 219 201 219 186 185 239 270 207 220 208 207 212 214 201 211 205 211 215 212 208 207 207 206 211 222 222 220 218 229
159 247 245 223 157 210 234 194 212 198 198 211 196 209 218 225 173 228 185 192 253 268 268 203 228 211 230 222 215 215 212 211 209 216 217 221 220 218 217 217 215 221 227 218
265 246 232 236 218 175 197 212 201 216 191 212 198 217 225 231 191 189 175 192 262 260 227 206 207 225 224 221 221 225 222 222 223 218 215 210 211 211 210 224 231 219 215 199
280 270 221 245 227 178 160 226 180 160 160 209 215 227 218 226 181 186 179 235 255 247 211 212 203 225 220 218 220 214 214 213 211 198 209 217 213 226 241 226 213 209 202 197
322 296 278 245 245 239 242 163 225 223 222 221 230 221 224 219 212 224 190 257 255 231 203 211 209 221 220 217 209 215 208 204 206 211 209 215 247 196 222 213 203 202 196 194
355 217 322 283 260 266 247 241 236 158 236 181 176 216 226 224 222 197 256 248 248 227 215 213 210 214 213 208 212 200 215 206 206 211 258 235 209 221 211 206 196 202 198 196
501 324 215 314 308 281 195 251 221 244 201 239 236 226 221 223 196 174 179 245 242 226 209 214 208 206 216 208 202 201 199 207 200 232 216 218 213 203 201 201 200 193 191 192
516 449 377 286 275 204 275 172 262 260 255 240 164 221 242 235 233 197 248 217 232 217 218 211 218 207 214 207 202 199 206 206 206 203 204 215 211 200 201 200 198 190 195 195
487 415 387 300 311 282 166 290 163 266 162 241 180 224 258 210 257 236 235 205 227 199 213 212 206 213 200 211 198 202 200 203 207 200 194 194 188 193 192 196 196 195 196 114
521 418 375 322 321 277 221 267 281 170 259 203 246 259 240 232 244 212 228 235 226 206 205 213 208 212 208 210 201 203 200 199 203 195 196 196 192 196 191 194 197 199 196 196
522 407 372 347 331 287 150 280 279 266 256 230 196 246 230 266 198 208 236 239 226 208 212 212 209 204 213 204 203 202 198 202 203 200 195 196 199 197 197 198 198 200 200 200
171 164 361 317 282 261 266 244 254 181 262 291 221 161 271 177 233 219 218 237 226 212 211 208 218 207 211 209 203 203 198 196 197 198 194 200 198 197 193 195 199 200 167 192
367 368 305 318 301 268 255 240 192 150 247 239 253 263 163 237 225 208 230 231 228 210 189 208 203 216 205 215 206 199 197 196 199 197 88 197 197 198 198 194 198 195 188 192
340 298 293 305 176 272 260 269 193 176 242 199 252 263 236 235 210 224 228 230 228 219 193 206 206 215 206 209 211 205 201 199 197 195 201 201 204 197 198 200 191 192 192 191
295 281 285 291 288 266 270 266 236 200 168 203 203 239 231 227 219 187 221 234 227 221 216 207 207 206 209 207 212 207 203 201 201 126 200 204 205 197 192 190 195 195 181 190
277 275 270 269 275 286 269 250 248 257 288 225 249 242 233 229 224 227 218 236 228 224 216 205 207 208 209 204 207 209 204 204 204 205 207 206 199 202 198 190 187 191 200 196
277 266 271 288 264 253 258 249 268 267 173 250 241 236 229 226 225 226 230 232 229 218 221 209 205 209 209 203 206 210 203 205 203 204 207 206 206 188 195 193 200 201 189 211
268 258 262 267 263 250 223 221 179 258 260 244 241 236 232 232 226 223 232 223 231 217 224 214 201 207 207 203 197 203 204 204 205 206 210 203 206 194 197 201 197 205 208 202
285 275 277 261 255 251 256 263 265 264 256 247 235 205 210 215 220 227 235 224 232 222 226 218 202 207 204 197 202 200 198 200 204 208 205 193 195 201 201 192 182 201 194 184
287 277 268 263 251 252 253 250 257 263 251 221 224 233 225 208 229 235 236 231 232 227 227 215 199 207 207 207 208 205 200 198 199 198 197 203 201 200 207 208 200 188 205 210
258 248 266 259 252 249 268 212 243 258 230 243 217 233 237 209 223 242 237 231 233 228 224 215 204 205 203 203 205 207 208 204 201 203 201 193 209 210 197 189 204 209 208 209
256 253 254 249 251 252 247 244 243 241 238 230 211 227 238 225 238 235 236 228 228 226 220 206 204 197 201 205 207 204 203 203 205 210 212 208 216 207 208 213 213 215 214 221
249 249 253 255 255 247 251 246 240 239 242 241 223 228 246 240 236 233 229 230 231 229 184 181 203 201 200 201 203 206 208 212 204 216 209 204 204 209 215 215 207 222 205 227
251 245 245 244 249 242 233 231 233 248 246 247 245 242 235 234 229 232 234 232 229 225 211 200 198 205 210 211 211 212 219 215 207 195 208 216 215 210 219 208 204 238 234 204
247 247 248 244 240 246 241 235 228 226 228 224 232 227 226 233 234 223 225 231 228 222 214 211 213 219 219 215 206 203 205 210 212 211 211 219 221 220 232 240 223 209 217 228
239 232 235 246 241 229 222 223 223 221 226 222 236 234 234 234 230 222 219 223 222 218 215 225 224 210 209 210 208 215 218 224 225 224 228 230 222 217 214 209 226 229 235 235
235 231 228 231 232 226 219 219 221 224 223 218 211 247 251 245 233 231 227 222 224 223 220 218 222 226 228 229 230 228 229 229 229 216 215 199 206 226 227 232 232 240 250 246

GFSNW_2pvu_pres_033.txt.gz
Presure
251 238 215 220 207 223 190 192 197 205 210 190 205 194 179 198 196 181 191 187 208 229 229 202 229 278 220 264 241 208 255 214 211 211 208 210 209 213 208 210 209 209 210 203
267 255 244 245 159 208 221 215 211 143 214 206 129 148 131 146 226 150 191 202 192 218 234 184 241 214 212 208 200 239 202 211 217 208 215 215 213 211 209 208 208 210 220 224
222 266 147 251 240 241 215 225 175 215 128 133 217 177 214 195 212 196 208 199 215 226 236 199 246 236 198 222 208 213 226 217 212 214 214 204 217 220 219 223 219 218 214 208
279 264 262 264 259 234 231 225 222 182 215 210 193 201 224 191 164 201 210 192 210 222 237 183 245 261 201 221 206 209 214 216 220 222 223 221 221 216 209 213 207 205 217 242
346 296 273 251 258 255 247 117 165 228 228 214 190 225 235 227 184 200 207 208 161 230 236 175 268 241 205 214 216 209 221 216 216 218 215 214 207 210 213 211 216 219 245 217
325 339 302 257 261 261 263 166 159 209 221 235 239 234 208 221 211 195 206 212 219 230 234 230 261 239 208 208 210 219 218 223 214 210 208 205 210 215 210 210 206 238 219 203
576 298 324 332 112 265 261 130 213 250 254 195 214 226 201 201 200 197 209 215 221 238 211 218 268 242 205 209 219 213 217 208 208 204 202 206 205 210 233 246 218 198 200 201
453 378 327 322 326 288 274 257 244 244 227 221 226 199 204 204 212 210 217 216 221 232 217 236 196 231 205 210 216 209 213 209 205 204 196 209 207 204 213 222 204 197 199 200
434 580 391 309 324 340 285 268 246 220 207 169 186 202 205 229 223 218 219 221 225 220 214 265 230 229 205 208 215 207 212 205 205 200 203 205 209 208 202 196 191 169 195 196
422 512 392 320 310 310 320 301 280 145 185 225 229 218 225 221 227 225 227 229 229 218 229 246 204 225 208 213 199 212 207 203 207 195 202 203 176 208 197 199 199 194 196 192
440 341 417 311 320 304 310 293 264 281 266 245 242 217 237 178 183 204 186 216 212 210 196 238 230 227 215 210 202 213 212 197 207 201 203 199 202 203 157 193 198 201 199 198
254 503 191 377 157 240 302 187 297 281 270 264 251 240 172 246 247 255 224 230 240 207 232 217 235 229 220 210 207 208 208 205 198 202 203 201 195 197 198 199 200 205 199 198
293 490 511 164 355 310 279 270 167 142 257 269 158 170 252 253 275 248 176 212 225 237 219 205 234 230 222 207 205 214 204 209 206 199 205 201 181 195 195 195 199 201 200 198
481 514 256 357 312 288 250 260 274 151 259 246 206 255 223 274 262 256 239 245 214 233 220 224 237 225 227 212 207 199 214 205 205 212 209 202 198 197 199 199 199 202 201 200
513 456 352 338 286 259 257 261 255 244 212 239 231 230 234 279 249 172 250 235 231 232 227 227 231 228 226 218 214 204 201 213 206 204 211 208 201 201 201 200 199 198 202 201
400 349 320 301 285 272 264 245 210 237 224 227 239 203 221 254 193 255 228 209 234 235 220 213 223 225 222 223 217 204 201 205 210 207 207 208 201 202 206 206 202 201 201 193
305 169 289 276 252 251 257 232 221 242 222 177 238 253 210 231 248 262 241 193 224 229 181 215 228 226 225 224 218 200 207 206 204 210 208 206 209 208 208 203 203 205 210 212
305 289 280 272 238 235 231 237 219 244 234 218 195 172 221 220 251 248 238 222 224 229 218 205 216 231 227 225 218 216 206 203 206 211 212 202 200 201 201 201 199 196 192 195
287 282 260 260 220 253 234 226 222 232 224 221 203 194 246 182 269 238 234 228 234 226 223 219 223 223 228 225 215 219 216 210 200 206 211 204 203 203 192 193 203 203 202 202
275 265 264 252 192 206 233 261 222 181 174 211 174 172 258 249 264 232 240 230 228 225 228 228 218 225 225 227 219 213 221 218 206 203 208 210 209 211 210 207 204 202 192 209
259 247 262 257 233 245 276 285 250 240 240 241 243 245 268 234 254 242 237 217 224 220 226 227 227 225 233 230 228 216 218 220 213 202 202 207 204 201 203 202 197 210 210 203
275 261 254 249 253 262 212 276 260 243 232 255 245 274 256 245 242 240 232 230 228 212 235 232 227 219 224 228 233 228 224 224 223 204 203 202 201 200 208 209 209 204 215 203
244 282 271 247 280 275 240 267 251 240 281 252 247 258 251 238 243 240 236 233 238 232 214 212 213 233 232 231 229 230 229 226 219 201 208 214 214 210 205 216 221 207 214 214
264 278 280 258 258 253 254 240 254 244 242 253 229 265 265 197 242 242 218 218 226 231 230 218 225 233 230 229 228 231 231 226 220 208 210 210 211 223 224 213 214 213 219 225
252 253 253 252 247 234 233 239 240 248 248 238 239 257 254 246 235 236 224 223 235 235 231 241 239 231 229 229 231 231 228 225 222 220 219 218 217 218 220 223 225 222 227 220
245 243 244 245 246 248 250 248 247 246 249 250 240 233 236 245 246 248 247 241 245 246 238 225 224 230 230 226 227 230 228 226 220 216 221 226 227 224 222 226 230 211 216 234
248 245 243 241 239 238 240 245 245 248 246 237 246 249 242 240 238 234 231 230 233 231 232 233 233 231 221 219 222 222 222 226 227 226 224 218 224 225 211 239 228 225 215 238

GFSNW_2pvu_pres_036.txt.gz
Presure
265 269 253 240 237 199 222 192 168 149 130 207 203 149 201 177 194 170 170 180 184 196 205 190 229 205 227 215 246 212 229 274 220 223 218 214 205 213 219 203 204 206 217 212
268 267 243 241 239 230 217 199 198 158 195 215 202 179 175 177 191 205 199 210 204 208 191 214 228 212 225 219 240 227 258 206 230 200 216 217 213 213 212 211 212 214 216 211
290 271 251 244 246 238 237 232 209 201 214 200 197 205 202 187 206 191 216 197 203 204 206 198 182 196 223 235 228 262 213 219 206 243 224 208 213 207 208 216 215 217 220 233
365 293 261 267 261 244 240 235 217 194 211 158 212 197 195 182 204 138 140 171 185 165 213 213 189 191 224 235 180 262 205 221 203 226 219 223 223 220 222 224 223 217 213 212
309 345 278 275 264 259 256 239 231 220 165 210 217 203 206 214 201 195 200 206 201 151 206 216 220 203 227 239 195 256 207 220 202 217 224 218 219 221 218 213 205 208 215 213
402 431 345 273 271 265 280 263 251 234 221 208 223 204 122 162 204 206 205 192 208 213 211 219 209 208 222 204 207 259 205 218 205 218 221 223 214 218 206 210 214 208 213 214
408 524 488 345 257 271 274 269 251 120 219 237 200 204 205 187 201 197 202 207 209 206 208 225 167 208 223 245 233 255 211 211 205 218 224 214 215 208 203 207 205 206 241 251
403 432 577 311 294 287 267 260 250 173 239 239 213 160 208 223 225 221 211 211 211 216 223 227 224 214 228 235 225 252 210 212 211 194 219 212 208 209 199 207 208 214 219 225
397 417 575 161 363 340 280 266 254 257 259 140 226 219 220 157 226 217 163 213 219 220 194 197 196 220 228 236 257 245 222 214 212 197 215 208 208 203 204 207 206 210 207 201
394 254 114 403 272 318 318 278 260 249 251 250 222 223 227 221 221 219 221 212 228 220 198 198 206 221 234 233 255 183 218 215 206 213 208 210 207 206 199 203 205 211 207 199
415 396 444 399 371 320 327 326 284 254 243 244 243 248 237 228 225 229 219 217 209 223 191 216 215 229 240 223 247 183 216 211 212 204 212 209 201 199 173 202 200 203 205 202
428 397 390 417 362 349 313 302 311 271 236 239 238 245 232 235 234 229 224 219 200 199 205 215 227 225 241 233 246 236 215 207 212 204 213 209 206 197 164 189 204 201 196 195
431 390 485 401 348 349 318 294 304 292 183 236 233 230 152 214 227 221 217 192 205 143 214 219 228 237 246 240 235 243 223 213 213 205 210 198 203 106 201 200 199 200 202 199
400 386 314 246 355 330 286 241 302 297 287 273 249 244 225 227 209 208 201 203 208 220 238 238 245 239 240 222 232 235 228 217 213 207 204 208 167 203 205 204 204 204 202 200
242 226 273 365 186 270 290 292 290 293 286 289 275 262 247 249 244 236 235 238 236 251 168 253 249 242 232 225 222 227 228 225 217 210 129 201 204 209 208 202 200 202 206 206
164 485 407 364 340 320 279 265 292 276 151 265 262 262 254 268 212 220 232 223 233 243 232 234 252 235 230 227 230 218 230 227 220 212 215 204 203 202 202 208 208 203 202 202
164 409 287 208 295 277 275 287 279 264 263 258 141 276 274 184 174 224 197 202 212 186 226 232 247 234 228 232 226 221 216 228 223 222 210 211 212 207 208 204 203 209 207 203
432 361 299 261 272 275 264 221 247 241 188 251 187 240 231 225 227 229 232 255 231 233 220 209 237 236 227 221 180 221 221 227 228 228 225 220 214 208 206 202 203 201 207 209
303 289 276 265 253 258 246 249 243 239 233 240 243 218 219 226 177 220 227 260 228 200 192 195 220 242 215 228 197 209 218 217 226 232 229 225 224 220 218 217 213 204 206 206
241 268 259 247 243 247 250 223 232 225 241 245 216 244 185 241 233 213 217 216 237 224 188 230 225 228 230 223 222 203 215 213 224 231 232 232 231 225 217 218 224 224 218 202
259 257 246 238 238 252 239 225 219 209 239 220 197 242 242 251 224 208 231 199 213 208 261 240 228 237 231 229 225 219 221 225 225 221 229 234 232 233 232 226 224 225 225 224
255 243 254 234 243 236 247 251 245 242 230 233 229 203 221 246 250 254 218 215 233 227 256 252 242 227 235 233 229 231 233 231 234 230 226 224 227 232 233 232 228 225 223 210
263 226 240 246 221 229 228 239 241 258 254 214 260 225 258 244 225 205 211 218 234 244 270 256 245 236 229 227 210 213 220 220 221 222 219 226 244 241 230 224 224 227 228 227
253 251 270 248 230 265 215 279 235 265 228 246 262 236 226 234 233 224 225 233 274 264 264 256 241 233 232 231 227 227 226 227 234 226 225 235 239 233 225 226 230 231 230 229
261 248 242 256 256 244 239 229 245 213 246 244 255 229 231 235 242 247 262 244 276 250 244 251 250 240 213 220 223 223 223 228 237 234 242 241 230 232 234 230 229 230 231 228
236 261 225 243 229 229 225 237 236 237 264 262 262 278 226 230 237 258 255 254 249 258 251 235 223 213 234 221 223 225 233 235 247 246 230 228 232 232 230 227 225 228 233 233
246 245 249 248 242 237 238 239 245 248 237 245 252 248 244 237 242 219 223 246 257 254 256 259 247 230 233 236 237 238 250 248 229 234 237 237 239 238 238 238 234 228 235 242

GFSNW_2pvu_pres_042.txt.gz
Presure
334 355 343 327 281 269 244 260 262 246 239 254 239 228 213 199 184 197 180 195 189 186 201 175 183 182 198 181 186 197 202 211 198 210 229 281 272 281 216 216 209 218 216 221
303 341 365 337 375 283 249 243 247 252 255 229 168 224 223 199 158 177 188 199 189 193 190 175 206 207 204 184 198 195 209 194 191 227 229 240 285 209 217 199 212 211 202 205
315 321 331 434 371 314 277 258 258 257 185 175 252 227 216 161 193 155 140 198 191 198 189 198 197 196 168 190 204 197 196 200 198 215 220 233 281 224 215 223 202 215 206 207
314 308 332 367 415 374 291 277 254 239 140 192 255 236 223 157 198 208 197 140 169 197 198 196 196 193 199 204 193 185 197 212 218 219 225 223 269 233 203 214 219 213 226 207
313 307 328 333 443 401 324 294 262 255 218 161 251 84 217 211 189 207 102 155 149 150 193 199 182 200 205 171 200 196 206 221 214 204 223 239 256 252 212 220 197 215 218 222
305 323 313 321 365 446 333 316 276 265 228 236 143 245 224 214 205 190 197 195 191 190 196 198 201 170 188 193 193 208 216 193 208 219 224 232 250 220 230 220 218 217 215 218
302 310 317 316 349 276 126 363 295 206 105 176 90 120 221 219 213 209 172 169 198 196 198 203 206 201 195 169 190 180 192 189 214 218 217 234 216 254 237 204 220 214 216 213
305 296 315 317 335 407 456 344 322 284 264 214 251 217 226 169 169 218 209 192 175 183 196 184 186 191 194 173 186 204 153 212 217 222 219 232 182 258 196 225 208 209 221 217
321 299 310 314 333 380 423 365 346 297 274 247 243 225 230 230 215 217 174 206 207 206 205 212 185 179 183 205 199 210 200 206 212 215 200 213 211 263 247 231 206 220 215 218
306 312 309 314 327 367 78 403 350 329 285 241 243 249 235 208 225 212 217 211 203 215 203 169 195 204 209 210 211 208 202 204 214 219 210 221 208 258 251 228 187 216 217 208
310 303 305 309 319 354 384 423 335 347 288 261 233 223 239 146 229 225 219 218 218 216 219 222 215 195 204 194 197 200 213 202 202 220 215 203 209 241 249 237 226 213 212 210
306 304 303 308 318 325 369 351 355 293 345 273 243 240 122 164 145 211 214 221 219 213 214 215 212 208 211 203 208 207 203 211 216 217 215 227 211 248 245 241 230 220 209 214
308 303 299 308 316 329 337 387 399 316 323 287 256 238 242 206 128 224 228 181 224 213 215 213 201 202 197 197 195 208 218 216 216 205 220 222 211 235 242 243 233 228 222 211
304 302 308 310 320 324 335 358 240 287 308 324 261 245 238 219 206 229 227 225 224 219 218 216 210 197 200 205 208 214 204 198 212 215 224 217 220 242 241 240 239 232 231 225
319 318 318 326 206 325 352 361 383 339 292 316 285 257 237 237 239 235 235 225 222 215 210 210 210 209 209 215 218 213 216 210 221 223 218 205 211 234 237 204 225 229 228 226
329 326 322 331 347 344 373 391 383 477 334 293 300 251 238 237 235 233 235 233 225 219 220 217 213 206 211 216 202 195 211 222 222 217 211 212 240 229 227 224 213 221 225 229
353 355 355 358 359 368 399 398 403 378 322 282 298 269 247 236 239 237 237 234 227 222 221 222 220 221 218 212 212 215 223 220 220 217 212 243 239 233 229 222 222 221 228 230
415 384 380 405 435 411 480 458 424 321 300 284 301 291 246 238 225 235 232 229 229 226 187 225 225 226 228 227 221 220 210 216 213 209 240 235 238 236 235 223 223 223 216 218
400 221 355 405 501 492 445 396 315 310 273 277 303 289 247 237 225 229 204 227 229 228 228 225 211 227 209 219 217 209 204 238 206 240 229 218 236 239 236 225 225 223 215 223
463 460 466 468 377 368 328 314 298 276 266 288 284 278 250 233 235 226 241 236 230 222 217 222 220 218 221 219 216 214 199 234 234 208 227 221 228 219 237 238 228 224 220 223
308 398 482 434 383 319 309 286 270 238 275 273 272 271 287 248 172 230 231 228 226 218 216 212 220 204 214 213 201 212 209 220 206 228 195 216 223 222 217 216 219 230 234 228
327 309 305 298 292 287 281 280 279 270 274 272 266 265 267 267 264 265 229 238 224 248 217 222 207 209 247 237 233 229 229 223 227 234 194 213 223 219 238 238 220 223 232 231
288 296 290 179 282 282 276 268 275 279 286 273 259 255 252 259 257 259 254 244 238 244 247 216 226 232 242 231 231 231 226 225 229 223 229 237 205 224 231 214 220 224 224 224
276 262 262 255 261 262 248 249 240 239 241 251 251 255 248 246 247 247 234 239 228 240 228 230 230 208 234 232 230 222 225 217 221 224 214 218 218 214 213 215 225 222 227 241
258 265 258 254 201 229 238 225 247 234 253 247 232 220 248 240 230 242 208 202 227 227 217 230 228 231 220 222 230 224 229 220 212 231 233 226 213 222 232 219 237 226 275 273
240 245 225 214 231 241 240 211 252 257 261 259 260 240 231 252 237 244 237 238 226 229 231 218 206 234 229 223 223 220 219 222 217 210 207 206 214 245 220 218 263 261 260 258
256 223 254 249 246 244 247 259 202 265 208 263 251 257 238 242 252 216 244 247 239 231 245 248 226 235 245 211 229 234 235 233 223 226 242 245 230 215 228 255 241 245 242 234

GFSNW_2pvu_pres_045.txt.gz
Presure
309 298 293 295 332 355 401 315 310 260 260 257 263 258 244 224 217 211 207 210 204 199 197 200 177 189 185 187 186 189 203 195 206 181 199 207 223 220 241 229 280 208 211 216
355 315 297 293 298 338 327 381 374 290 268 264 274 219 245 233 221 211 161 187 209 133 189 197 191 189 195 182 191 199 199 192 207 181 206 212 194 226 235 268 250 217 202 215
429 353 304 283 298 305 313 446 364 329 284 121 268 249 249 240 227 213 208 214 209 203 191 199 193 195 194 176 190 206 188 181 187 199 203 207 203 225 228 263 243 204 208 244
423 383 319 301 292 294 303 341 405 357 287 294 263 106 252 247 229 180 211 214 107 208 195 197 196 193 178 189 191 197 197 184 175 201 205 199 182 219 232 198 250 225 232 264
472 405 353 306 293 296 298 310 588 366 361 109 269 260 92 137 226 216 109 213 208 207 199 195 191 192 187 201 206 178 199 183 189 200 190 194 212 184 231 224 257 235 211 218
452 399 372 307 300 305 299 303 334 393 367 101 173 100 240 238 210 221 217 210 208 209 203 133 188 199 196 191 192 183 202 190 186 193 190 202 224 219 230 220 205 237 215 216
423 383 371 326 302 135 223 293 312 574 376 97 123 255 244 238 229 228 167 197 213 206 150 181 198 194 191 199 205 193 193 177 198 180 195 210 210 220 234 234 227 234 221 212
391 369 362 312 307 294 269 135 324 438 373 340 121 101 96 165 236 160 228 219 212 190 209 205 185 201 203 208 201 179 178 185 214 194 194 195 213 218 227 213 214 262 218 221
371 364 345 309 308 293 290 296 324 506 400 336 86 201 145 235 141 242 229 189 218 214 216 207 201 197 195 197 200 177 151 200 176 204 203 215 170 219 220 227 222 228 256 231
368 350 323 298 291 294 305 297 331 548 426 336 323 249 239 211 211 241 177 221 221 214 217 218 217 209 179 180 184 183 195 204 204 207 209 187 212 204 222 214 229 222 253 243
342 326 302 277 288 299 307 318 328 472 528 339 329 262 234 228 236 241 230 222 132 184 162 219 219 176 188 176 189 201 188 196 202 208 194 212 206 213 223 216 229 214 233 243
322 302 286 282 288 295 306 316 337 437 538 337 328 251 235 232 225 241 232 225 221 223 218 214 206 204 206 209 205 200 173 205 212 222 215 204 209 212 207 209 223 222 230 247
296 299 297 295 288 295 305 323 184 419 546 327 324 248 233 235 191 234 240 227 219 221 222 221 216 213 211 211 205 207 207 207 208 182 193 207 207 211 227 215 224 225 217 245
301 302 302 304 306 311 319 329 372 408 527 326 323 164 239 235 155 149 189 189 204 156 222 221 215 213 208 211 213 212 214 216 210 199 208 204 210 212 207 218 224 224 219 242
300 310 305 297 302 305 309 321 368 395 493 323 328 292 247 238 237 214 206 128 175 229 228 224 219 215 211 213 210 211 209 206 206 206 211 204 214 216 207 221 228 216 217 241
299 305 302 302 298 311 316 318 343 393 136 325 319 318 249 243 232 149 241 224 184 231 229 227 223 218 214 213 213 211 212 212 213 209 208 211 214 199 211 223 222 216 240 241
306 307 306 299 297 308 303 314 331 250 374 330 324 323 251 244 238 235 229 246 248 238 231 228 224 221 219 218 216 214 206 212 210 202 205 211 206 211 224 223 219 211 251 244
313 311 308 306 307 309 324 311 333 348 390 333 313 336 262 244 238 233 229 235 245 238 228 224 220 220 218 218 215 215 211 212 216 212 217 220 218 228 224 213 214 210 232 230
314 315 320 317 316 317 328 346 370 359 383 335 290 317 260 246 239 225 231 236 235 237 236 235 228 226 168 211 215 211 215 214 187 223 221 224 222 219 218 211 240 220 234 225
333 175 330 331 335 348 358 354 373 375 426 322 278 299 313 257 241 236 227 221 227 226 227 230 228 226 226 225 219 222 222 223 224 222 217 216 219 218 210 212 237 245 224 230
394 378 369 357 350 359 381 341 373 368 358 295 297 308 304 260 243 234 226 213 218 232 229 216 182 224 221 224 221 225 225 221 220 219 214 217 221 222 235 194 225 172 245 215
382 415 446 523 509 405 338 339 340 334 360 283 279 295 293 270 244 238 230 228 239 188 240 220 240 227 224 217 222 219 218 217 175 209 216 220 220 213 220 222 228 236 228 234
412 386 376 377 323 373 351 350 336 348 270 266 268 279 283 272 245 235 169 221 225 223 213 246 234 224 216 220 209 207 209 213 214 215 220 223 210 221 247 238 235 227 235 214
343 346 345 342 355 324 322 326 291 258 255 264 272 274 276 262 256 234 231 229 230 228 237 216 219 212 211 213 228 210 214 214 212 202 232 225 238 230 233 228 226 224 217 211
274 282 272 278 269 267 267 241 266 264 265 276 274 267 219 216 260 256 242 239 232 232 232 219 215 211 213 228 207 218 225 222 224 226 225 237 235 228 228 232 231 226 236 218
251 261 263 261 241 261 230 261 253 267 259 269 263 260 260 243 259 260 260 203 262 220 261 253 210 217 223 236 246 244 244 211 211 236 237 230 213 214 219 231 235 241 237 230
207 254 211 252 255 231 261 255 256 259 261 251 245 244 237 250 216 194 207 253 253 256 206 248 249 249 253 247 241 227 235 238 228 241 238 240 242 234 233 230 236 229 237 237